• Processing (Info)

  • MPEC 2015-K25 : 2015 KK

    The following Minor Planet Electronic Circular may be linked-to from your own Web pages, but must not otherwise be redistributed electronically.

    A form allowing access to any MPEC is at the bottom of this page.


    Read MPEC 2015-K24 Read MPEC 2015-K26


    M.P.E.C. 2015-K25                                Issued 2015 May 19, 14:20 UT
    
         The Minor Planet Electronic Circulars contain information on unusual
             minor planets and routine data on comets.  They are published
       on behalf of Commission 20 of the International Astronomical Union by the
              Minor Planet Center, Smithsonian Astrophysical Observatory,
                              Cambridge, MA 02138, U.S.A.
    
                 Prepared using the Tamkin Foundation Computer Network
    
                                  MPC@CFA.HARVARD.EDU
                URL https://www.minorplanetcenter.net/    ISSN 1523-6714
    
                                        2015 KK
    
    Observations:
         K15K00K* C2015 05 18.33284 16 12 59.94 -25 46 07.6          18.2 VqEK025703
         K15K00K  C2015 05 18.33735 16 12 52.46 -25 47 13.7          18.8 VqEK025703
         K15K00K  C2015 05 18.34187 16 12 45.17 -25 48 20.9          18.5 VqEK025703
         K15K00K  C2015 05 18.34639 16 12 37.53 -25 49 29.1          18.8 VqEK025703
         K15K00K KC2015 05 18.37819 16 11 45.79 -25 57 12.1          19.0 RoEK025291
         K15K00K KC2015 05 18.37867 16 11 45.00 -25 57 19.0          18.7 RoEK025291
         K15K00K KC2015 05 18.37916 16 11 44.22 -25 57 26.0          18.8 RoEK025291
         K15K00K  C2015 05 18.39287016 11 21.32 -26 00 43.6          18.2 RtEK025H01
         K15K00K  C2015 05 18.39707 16 11 15.35 -26 01 42.3                qEK025703
         K15K00K  C2015 05 18.39757 16 11 14.47 -26 01 48.5          19.0 VqEK025703
         K15K00K  C2015 05 18.39807 16 11 13.68 -26 01 55.2                qEK025703
         K15K00K  C2015 05 18.39857 16 11 12.89 -26 02 04.2          18.9 VqEK025703
         K15K00K  C2015 05 18.39908 16 11 12.01 -26 02 10.5                qEK025703
         K15K00K  C2015 05 18.40137116 11 07.80 -26 02 43.2          18.1 RtEK025H01
         K15K00K  C2015 05 18.40628616 11 00.01 -26 03 52.0          18.1 RtEK025H01
         K15K00K KC2015 05 18.40728 16 11 14.48 -25 59 40.8          18.4 RtEK025474
         K15K00K KC2015 05 18.40765 16 11 13.87 -25 59 45.9          18.0 RtEK025474
         K15K00K KC2015 05 18.40802 16 11 13.32 -25 59 51.7          18.4 RtEK025474
         K15K00K KC2015 05 18.40840 16 11 12.74 -25 59 57.0          18.4 RtEK025474
         K15K00K KC2015 05 18.40870 16 11 12.25 -26 00 01.5          18.3 RtEK025474
         K15K00K  C2015 05 18.41411616 10 47.67 -26 05 41.1          18.7 RtEK025H01
         K15K00K KC2015 05 18.56944 16 07 10.28 -26 36 35.8          18.7 RtEK025474
         K15K00K KC2015 05 18.57005 16 07 09.39 -26 36 43.8          18.9 RtEK025474
         K15K00K KC2015 05 18.57067 16 07 08.50 -26 36 51.6          18.6 RtEK025474
         K15K00K KC2015 05 18.57129 16 07 07.61 -26 36 59.3          18.9 RtEK025474
         K15K00K KC2015 05 18.57191 16 07 06.73 -26 37 07.2          18.9 RtEK025474
         K15K00K |C2015 05 19.11698 15 56 26.44 -28 14 51.8          19.4 VuEK025807
         K15K00K |C2015 05 19.12054 15 56 22.56 -28 15 24.4          19.4 VuEK025807
         K15K00K |C2015 05 19.12422 15 56 18.54 -28 15 58.1          19.3 VuEK025807
         K15K00K |C2015 05 19.12768 15 56 14.76 -28 16 29.4          19.6 VuEK025807
         K15K00K |C2015 05 19.13160 15 56 10.48 -28 17 05.1          19.7 VuEK025807
         K15K00K |C2015 05 19.13481 15 56 07.00 -28 17 34.3          19.3 VuEK025807
         K15K00K |C2015 05 19.13862 15 56 02.86 -28 18 08.7          19.4 VuEK025807
         K15K00K  C2015 05 19.30750 15 53 13.57 -28 44 23.9          19.1 RoEK025926
         K15K00K  C2015 05 19.31122 15 53 09.84 -28 44 53.7          19.1 RoEK025926
         K15K00K  C2015 05 19.31494 15 53 06.09 -28 45 23.2          19.2 RoEK025926
         K15K00K KC2015 05 19.55777 15 49 29.90 -29 12 28.5          19.4 RtEK025474
         K15K00K KC2015 05 19.55897 15 49 28.84 -29 12 36.7          19.2 RtEK025474
         K15K00K KC2015 05 19.56017 15 49 27.77 -29 12 44.9          19.1 RtEK025474
         K15K00K KC2015 05 19.56518 15 49 23.33 -29 13 19.8          18.8 RtEK025474
         K15K00K KC2015 05 19.56638 15 49 22.25 -29 13 28.0          19.1 RtEK025474
    
    Observer details:
    291 LPL/Spacewatch II.  Observer R. A. Mastaler.  1.8-m f/2.7 reflector + CCD.
    474 Mount John Observatory, Lake Tekapo.  Observers A. C. Gilmore,
        P. M. Kilmartin.  Measurer P. M. Kilmartin.  1.0-m f/7.7 reflector + CCD.
    703 Catalina Sky Survey.  Observer R. E. Hill.  Measurers E. J. Christensen,
        D. C. Fuls, A. R. Gibbs, A. D. Grauer, R. E. Hill, J. A. Johnson,
        R. A. Kowalski, S. M. Larson, R. G. Matheny, F. C. Shelly.  0.68-m Schmidt
        + CCD.
    807 Cerro Tololo.  Observers T. Linder, R. Holmes.  0.41-m f/11
        Ritchey-Chretien + CCD.
    926 Tenagra II Observatory.  Observers M. Schwartz, P. R. Holvorcem.  Measurer
        M. Schwartz.  0.81-m f/7 Ritchey-Chretien + CCD.
    H01 Magdalena Ridge Observatory, Socorro.  Observer W. H. Ryan.  2.4-m f/8.9
        reflector + CCD.
    
    Orbital elements:
    2015 KK                                                  Earth MOID = 0.0097 AU
    Epoch 2015 June 27.0 TT = JDT 2457200.5                 MPC
    M  21.16879              (2000.0)            P               Q
    n   0.24073501     Peri.   85.43428     -0.75493314     -0.61186373
    a   2.5592333      Node    56.64482     +0.43133567     -0.73434770
    e   0.7864700      Incl.   16.41231     +0.49398936     -0.29386431
    P   4.09           H   25.1           G   0.15           U   6
    Residuals in seconds of arc
    150518 703  1.2-  0.8-    150518 H01  0.1-  0.0     150519 807  0.3-  0.2-
    150518 703  0.9-  0.6+    150518 474  0.2+  0.1-    150519 807  0.4-  0.1+
    150518 703 (1.8+  0.8+)   150518 474  0.3-  0.3+    150519 807  0.5-  0.0
    150518 703  0.4-  0.3-    150518 474  0.1+  0.1-    150519 807  0.3-  0.1-
    150518 291  0.3+  0.2+    150518 474  0.3+  0.1+    150519 807  0.3-  0.0
    150518 291  0.2+  0.2+    150518 474  0.1-  0.0     150519 926  0.4+  0.1+
    150518 291  0.3+  0.2+    150518 H01  0.1-  0.1-    150519 926  0.6+  0.1-
    150518 H01  0.0   0.2-    150518 474  0.2+  0.5+    150519 926  0.4+  0.0
    150518 703  1.1+  0.6-    150518 474  0.0   0.2+    150519 474  0.0   0.1+
    150518 703  0.0   0.3+    150518 474  0.1+  0.3+    150519 474  0.1+  0.2+
    150518 703  0.1+  0.6+    150518 474  0.1+  0.4+    150519 474  0.1+  0.2+
    150518 703  0.2+  1.3-    150518 474  0.3+  0.4+    150519 474  0.1+  0.2-
    150518 703  0.7-  0.4-    150519 807  0.4-  0.3-    150519 474  0.1-  0.1-
    150518 H01  0.1+  0.0     150519 807  0.3-  0.2-
    
    Ephemeris:
    2015 KK                  a,e,i = 2.56, 0.79, 16                  q = 0.5465
    Date    TT    R. A. (2000) Decl.     Delta      r     Elong.  Phase     V
    2015 04 19    02 39 07.8 +34 08 38   0.4038  0.6664    26.3   138.2    28.9
    ...
    2015 05 04    02 28 13.1 +37 39 43   0.1679  0.8549    22.1   153.6    30.1
    ...
    2015 05 12    01 36 48.2 +41 02 33   0.05435 0.9639    31.0   147.3    26.6
    ...
    2015 05 18    16 22 44.1 -24 07 28   0.03528 1.0460   168.4    11.2    18.6
    2015 05 19    15 58 25.3 -27 56 55   0.04861 1.0596   170.7     8.8    19.3
    2015 05 20    15 43 55.9 -29 58 55   0.06234 1.0732   169.8     9.6    19.9
    ...
    2015 05 26    15 13 37.9 -33 36 28   0.1475  1.1543   162.4    15.4    22.1
    ...
    2015 06 03    15 05 07.9 -34 25 28   0.2653  1.2605   155.6    19.4    23.7
    ...
    2015 06 18    15 06 11.8 -34 26 25   0.5017  1.4523   144.1    24.2    25.5
    
    A. U. Tomatic                (C) Copyright 2015 MPC           M.P.E.C. 2015-K25
    

    Read MPEC 2015-K24 Read MPEC 2015-K26


    MPEC number:

    Enter an MPEC number in one of the following forms:

    • 1997-B01 (the full form)
    • J97B01 (the packed version of the full form)
    • B01 (the abbreviated form)